Emporia, KS

5:02 PM CST on February 22, 2017 (GMT -0600)
Emporia Municipal

Weather History for KEMP - August, 2014

Change the Weather History Date:

Sunday, August 3, 2014

  Actual Average Record
Temperature  
Mean Temperature 78 °F 79 °F  
Max Temperature 92 °F 91 °F 102 °F (2012)
Min Temperature 64 °F 68 °F 64 °F (2000)
Degree Days  
Heating Degree Days 0 0  
Month to date heating degree days 0 0  
Since 1 June heating degree days 6 8  
Since 1 July heating degree days 2 0  
Cooling Degree Days 13 14  
Month to date cooling degree days 37 42  
Year to date cooling degree days 787 858  
Since 1 June cooling degree days 611 739  
Growing Degree Days 28 (Base 50)    
Moisture  
Dew Point 63 °F    
Average Humidity 64    
Maximum Humidity 93    
Minimum Humidity 34    
Precipitation  
Precipitation 0.00 in 0.08 in 0.65 in (2006)
Month to date precipitation 0.09 0.27  
Year to date precipitation 13.77 23.06  
Sea Level Pressure  
Sea Level Pressure 30.08 in    
Wind  
Wind Speed 10 mph (SSE)    
Max Wind Speed 22 mph    
Max Gust Speed 28 mph    
Visibility 10 miles    
Events      
T = Trace of Precipitation, MM = Missing Value Source: NWS Daily Summary

Daily Weather History Graph

Daily Weather History Graph

Search for Another Location

Airport or City:

Trip Planner

Search our weather history database for the weather conditions in past years. The results will help you decide how hot, cold, wet, or windy it might be!

Date:

Astronomy

Aug. 03, 2014 Rise Set
Actual Time 6:28 AM CDT 8:32 PM CDT
Civil Twilight 5:59 AM CDT 9:01 PM CDT
Nautical Twilight 5:23 AM CDT 9:37 PM CDT
Astronomical Twilight 4:45 AM CDT 10:15 PM CDT
Moon 1:44 PM CDT (8/3) No Moon Set
Length of Visible Light 15h 02m
Length of Day
14h 03m
Waxing Crescent, 47% of the Moon is Illuminated
Aug 3
Waxing Crescent
Aug 3
First Quarter
Aug 10
Full
Aug 17
Last Quarter
Aug 25
New

Hourly Weather History & Observations

Time (CDT) Temp. Heat Index Dew Point Humidity Pressure Visibility Wind Dir Wind Speed Gust Speed Precip Events Conditions
12:53 AM 68.0 °F - 62.1 °F 81% 30.10 in 10.0 mi South 8.1 mph - N/A   Clear
1:53 AM 68.0 °F - 62.1 °F 81% 30.08 in 10.0 mi South 8.1 mph - N/A   Clear
3:53 AM 66.0 °F - 62.1 °F 87% 30.09 in 10.0 mi South 6.9 mph - N/A   Clear
4:53 AM 66.0 °F - 62.1 °F 87% 30.09 in 10.0 mi SSE 8.1 mph - N/A   Partly Cloudy
5:53 AM 64.0 °F - 62.1 °F 93% 30.09 in 10.0 mi South 4.6 mph - N/A   Clear
6:53 AM 64.9 °F - 62.1 °F 90% 30.11 in 9.0 mi South 5.8 mph - N/A   Clear
7:53 AM 68.0 °F - 63.0 °F 84% 30.12 in 9.0 mi SSW 4.6 mph - N/A   Clear
8:53 AM 75.9 °F - 64.9 °F 69% 30.14 in 10.0 mi SSW 5.8 mph - N/A   Clear
9:53 AM 75.9 °F - 64.9 °F 69% 30.14 in 10.0 mi East 8.1 mph - N/A   Scattered Clouds
10:53 AM 81.0 °F 82.5 °F 64.0 °F 56% 30.14 in 10.0 mi East 9.2 mph - N/A   Clear
11:53 AM 82.0 °F 83.4 °F 64.0 °F 54% 30.15 in 10.0 mi NE 16.1 mph - N/A   Mostly Cloudy
12:53 PM 78.1 °F - 64.9 °F 64% 30.14 in 10.0 mi East 17.3 mph - N/A   Clear
1:53 PM 84.0 °F 85.8 °F 64.9 °F 53% 30.10 in 10.0 mi ESE 15.0 mph - N/A   Clear
2:53 PM 87.1 °F 88.3 °F 64.0 °F 46% 30.06 in 10.0 mi SSE 12.7 mph 19.6 mph N/A   Clear
3:53 PM 90.0 °F 90.6 °F 63.0 °F 40% 30.03 in 10.0 mi South 13.8 mph - N/A   Clear
4:53 PM 91.0 °F 90.2 °F 59.0 °F 34% 30.01 in 10.0 mi South 15.0 mph 23.0 mph N/A   Clear
5:53 PM 91.0 °F 90.2 °F 59.0 °F 34% 30.00 in 10.0 mi South 11.5 mph - N/A   Partly Cloudy
6:53 PM 89.1 °F 88.8 °F 60.1 °F 38% 30.00 in 10.0 mi South 10.4 mph - N/A   Clear
7:53 PM 84.9 °F 85.0 °F 61.0 °F 44% 30.01 in 10.0 mi SSW 10.4 mph - N/A   Clear
9:53 PM 77.0 °F - 62.1 °F 60% 30.02 in 10.0 mi South 11.5 mph - N/A   Clear
10:53 PM 75.0 °F - 63.0 °F 66% 30.03 in 10.0 mi South 9.2 mph - N/A   Clear